Time,TemperatureF,DewpointF,PressureIn,WindDirection,WindDirectionDegrees,WindSpeedMPH,WindSpeedGustMPH,Humidity,HourlyPrecipIn,Conditions,Clouds,dailyrainin,SoftwareType,DateUTC
2013-05-11 00:21:00,62.0,58.0,30.06,East,100,5.0,-999.0,87,0.00,,,-99.99,,2013-05-11 07:21:00,
2013-05-11 00:32:00,62.0,58.0,30.06,East,100,5.0,-999.0,87,0.00,,,-99.99,,2013-05-11 07:32:00,
2013-05-11 00:42:00,62.0,58.0,30.06,East,100,5.0,-999.0,87,0.00,,,-99.99,,2013-05-11 07:42:00,
2013-05-11 01:21:00,62.0,58.0,30.06,East,100,4.0,-999.0,87,0.00,,,-99.99,,2013-05-11 08:21:00,
2013-05-11 01:31:00,62.0,58.0,30.06,East,100,4.0,-999.0,87,0.00,,,-99.99,,2013-05-11 08:31:00,
2013-05-11 01:42:00,62.0,58.0,30.06,East,100,4.0,-999.0,87,0.00,,,-99.99,,2013-05-11 08:42:00,
2013-05-11 02:21:00,61.0,57.0,30.05,East,90,4.0,-999.0,87,0.00,,,-99.99,,2013-05-11 09:21:00,
2013-05-11 02:32:00,61.0,57.0,30.05,East,90,4.0,-999.0,87,0.00,,,-99.99,,2013-05-11 09:32:00,
2013-05-11 02:42:00,61.0,57.0,30.05,East,90,4.0,-999.0,87,0.00,,,-99.99,,2013-05-11 09:42:00,
2013-05-11 03:22:00,62.0,58.0,30.04,East,90,1.0,-999.0,87,0.00,,,-99.99,,2013-05-11 10:22:00,
2013-05-11 03:33:00,62.0,58.0,30.04,East,90,1.0,-999.0,87,0.00,,,-99.99,,2013-05-11 10:33:00,
2013-05-11 03:42:00,62.0,58.0,30.04,East,90,1.0,-999.0,87,0.00,,,-99.99,,2013-05-11 10:42:00,
2013-05-11 04:21:00,62.0,58.0,30.03,South,180,5.0,-999.0,88,0.00,,,-99.99,,2013-05-11 11:21:00,
2013-05-11 04:32:00,62.0,58.0,30.03,South,180,5.0,-999.0,88,0.00,,,-99.99,,2013-05-11 11:32:00,
2013-05-11 04:42:00,62.0,58.0,30.03,South,180,5.0,-999.0,88,0.00,,,-99.99,,2013-05-11 11:42:00,
2013-05-11 05:21:00,61.0,58.0,30.02,ESE,120,4.0,-999.0,89,0.00,,,-99.99,,2013-05-11 12:21:00,
2013-05-11 05:32:00,61.0,58.0,30.02,ESE,120,4.0,-999.0,89,0.00,,,-99.99,,2013-05-11 12:32:00,
2013-05-11 05:42:00,61.0,58.0,30.02,ESE,120,4.0,-999.0,89,0.00,,,-99.99,,2013-05-11 12:42:00,
2013-05-11 06:21:00,61.0,58.0,30.02,ESE,120,4.0,-999.0,89,0.00,,,-99.99,,2013-05-11 13:21:00,
2013-05-11 06:31:00,61.0,58.0,30.02,ESE,120,4.0,-999.0,89,0.00,,,-99.99,,2013-05-11 13:31:00,
2013-05-11 06:41:00,61.0,58.0,30.02,ESE,120,4.0,-999.0,89,0.00,,,-99.99,,2013-05-11 13:41:00,
2013-05-11 07:21:00,61.0,58.0,30.04,North,0,0.0,-999.0,89,0.00,,,-99.99,,2013-05-11 14:21:00,
2013-05-11 07:32:00,61.0,58.0,30.04,North,0,0.0,-999.0,89,0.00,,,-99.99,,2013-05-11 14:32:00,
2013-05-11 07:41:00,61.0,58.0,30.04,North,0,0.0,-999.0,89,0.00,,,-99.99,,2013-05-11 14:41:00,
2013-05-11 08:21:00,61.0,58.0,30.04,North,0,0.0,-999.0,89,0.00,,,-99.99,,2013-05-11 15:21:00,
2013-05-11 08:32:00,61.0,58.0,30.04,North,0,0.0,-999.0,89,0.00,,,-99.99,,2013-05-11 15:32:00,
2013-05-11 08:42:00,61.0,58.0,30.04,North,0,0.0,-999.0,89,0.00,,,-99.99,,2013-05-11 15:42:00,
2013-05-11 09:22:00,61.0,57.0,30.05,SSW,200,3.0,-999.0,88,0.00,,,-99.99,,2013-05-11 16:22:00,
2013-05-11 09:33:00,61.0,57.0,30.05,SSW,200,3.0,-999.0,88,0.00,,,-99.99,,2013-05-11 16:33:00,
2013-05-11 09:42:00,61.0,57.0,30.05,SSW,200,3.0,-999.0,88,0.00,,,-99.99,,2013-05-11 16:42:00,
2013-05-11 10:22:00,62.0,58.0,30.05,West,280,6.0,-999.0,88,0.00,,,-99.99,,2013-05-11 17:22:00,
2013-05-11 10:31:00,62.0,58.0,30.05,West,280,6.0,-999.0,88,0.00,,,-99.99,,2013-05-11 17:31:00,
2013-05-11 10:41:00,62.0,58.0,30.05,West,280,6.0,-999.0,88,0.00,,,-99.99,,2013-05-11 17:41:00,
2013-05-11 11:21:00,62.0,58.0,30.04,SW,230,5.0,-999.0,88,0.00,,,-99.99,,2013-05-11 18:21:00,
2013-05-11 11:32:00,62.0,58.0,30.04,SW,230,5.0,-999.0,88,0.00,,,-99.99,,2013-05-11 18:32:00,
2013-05-11 11:41:00,62.0,58.0,30.04,SW,230,5.0,-999.0,88,0.00,,,-99.99,,2013-05-11 18:41:00,
2013-05-11 12:21:00,62.0,58.0,30.03,West,260,5.0,-999.0,88,0.00,,,-99.99,,2013-05-11 19:21:00,
2013-05-11 12:32:00,62.0,58.0,30.03,West,260,5.0,-999.0,88,0.00,,,-99.99,,2013-05-11 19:32:00,
2013-05-11 12:41:00,62.0,58.0,30.03,West,260,5.0,-999.0,88,0.00,,,-99.99,,2013-05-11 19:41:00,
2013-05-11 13:22:00,62.0,59.0,30.02,West,280,6.0,-999.0,89,0.00,,,-99.99,,2013-05-11 20:22:00,
2013-05-11 13:32:00,62.0,59.0,30.02,West,280,6.0,-999.0,89,0.00,,,-99.99,,2013-05-11 20:32:00,
2013-05-11 13:42:00,62.0,59.0,30.02,West,280,6.0,-999.0,89,0.00,,,-99.99,,2013-05-11 20:42:00,
2013-05-11 14:21:00,61.0,58.0,30.01,WNW,300,6.0,-999.0,90,0.00,,,-99.99,,2013-05-11 21:21:00,
2013-05-11 14:33:00,61.0,58.0,30.01,WNW,300,6.0,-999.0,90,0.00,,,-99.99,,2013-05-11 21:33:00,
2013-05-11 14:43:00,61.0,58.0,30.01,WNW,300,6.0,-999.0,90,0.00,,,-99.99,,2013-05-11 21:43:00,
2013-05-11 15:23:00,62.0,59.0,30.00,WNW,300,8.0,-999.0,89,0.00,,,-99.99,,2013-05-11 22:23:00,
2013-05-11 15:33:00,62.0,59.0,30.00,WNW,300,8.0,-999.0,89,0.00,,,-99.99,,2013-05-11 22:33:00,
2013-05-11 15:42:00,62.0,59.0,30.00,WNW,300,8.0,-999.0,89,0.00,,,-99.99,,2013-05-11 22:42:00,
2013-05-11 16:22:00,63.0,59.0,29.98,WNW,300,9.0,-999.0,88,0.00,,,-99.99,,2013-05-11 23:22:00,
2013-05-11 16:32:00,63.0,59.0,29.98,WNW,300,9.0,-999.0,88,0.00,,,-99.99,,2013-05-11 23:32:00,
2013-05-11 16:42:00,63.0,59.0,29.98,WNW,300,9.0,-999.0,88,0.00,,,-99.99,,2013-05-11 23:42:00,
2013-05-11 17:21:00,63.0,59.0,29.97,WNW,300,11.0,-999.0,88,0.00,,,-99.99,,2013-05-12 00:21:00,
2013-05-11 17:32:00,63.0,59.0,29.97,WNW,300,11.0,-999.0,88,0.00,,,-99.99,,2013-05-12 00:32:00,
2013-05-11 17:42:00,63.0,59.0,29.97,WNW,300,11.0,-999.0,88,0.00,,,-99.99,,2013-05-12 00:42:00,
2013-05-11 18:21:00,63.0,60.0,29.97,WNW,290,12.0,-999.0,91,0.00,,,-99.99,,2013-05-12 01:21:00,
2013-05-11 18:32:00,63.0,60.0,29.97,WNW,290,12.0,-999.0,91,0.00,,,-99.99,,2013-05-12 01:32:00,
2013-05-11 18:41:00,63.0,60.0,29.97,WNW,290,12.0,-999.0,91,0.00,,,-99.99,,2013-05-12 01:41:00,
2013-05-11 19:22:00,62.0,60.0,29.97,West,280,13.0,-999.0,92,0.00,,,-99.99,,2013-05-12 02:22:00,
2013-05-11 19:31:00,62.0,60.0,29.97,West,280,13.0,-999.0,92,0.00,,,-99.99,,2013-05-12 02:31:00,
2013-05-11 19:42:00,62.0,60.0,29.97,West,280,13.0,-999.0,92,0.00,,,-99.99,,2013-05-12 02:42:00,
2013-05-11 20:22:00,62.0,60.0,29.99,WSW,250,4.0,-999.0,93,0.00,,,-99.99,,2013-05-12 03:22:00,
2013-05-11 20:32:00,62.0,60.0,29.99,WSW,250,4.0,-999.0,93,0.00,,,-99.99,,2013-05-12 03:32:00,
2013-05-11 20:42:00,62.0,60.0,29.99,WSW,250,4.0,-999.0,93,0.00,,,-99.99,,2013-05-12 03:42:00,
2013-05-11 21:22:00,62.0,60.0,30.01,SE,140,5.0,-999.0,93,0.00,,,-99.99,,2013-05-12 04:22:00,
2013-05-11 21:33:00,62.0,60.0,30.01,SE,140,5.0,-999.0,93,0.00,,,-99.99,,2013-05-12 04:33:00,
2013-05-11 21:43:00,62.0,60.0,30.01,SE,140,5.0,-999.0,93,0.00,,,-99.99,,2013-05-12 04:43:00,
2013-05-11 22:22:00,62.0,60.0,30.03,SSE,160,9.0,-999.0,94,0.00,,,-99.99,,2013-05-12 05:22:00,
2013-05-11 22:31:00,62.0,60.0,30.03,SSE,160,9.0,-999.0,94,0.00,,,-99.99,,2013-05-12 05:31:00,
2013-05-11 22:42:00,62.0,60.0,30.03,SSE,160,9.0,-999.0,94,0.00,,,-99.99,,2013-05-12 05:42:00,
2013-05-11 23:21:00,61.0,59.0,30.04,South,190,4.0,-999.0,94,0.00,,,-99.99,,2013-05-12 06:21:00,
2013-05-11 23:32:00,61.0,59.0,30.04,South,190,4.0,-999.0,94,0.00,,,-99.99,,2013-05-12 06:32:00,
2013-05-11 23:42:00,61.0,59.0,30.04,South,190,4.0,-999.0,94,0.00,,,-99.99,,2013-05-12 06:42:00,